[Date Prev][Date Next][Thread Prev][Thread Next][Date Index][Thread Index]

[jamsat-news:647] jas2info #53


=========================   最新情報   ==============================

        Last updated :Mon.22-Sep-97 21:30 (JST) #53

====================================================================
   
     衛星情報 FOシリーズの軌道要素、テレメトリ、QSOの状況等をま
   とめてみました.

  1)FO−29(ふじ3号)は9月22日(月)の18:52(JST)の
     パスではJAアナログモードの運用に変わっておりました.JARL発表の
     通常のスケジュールを変更して運用されています. 
    
  ■ 軌道要素1:「jamsatーkeps:618」より
                 SB KEPS @ AMSAT  $ORBS-262.N
                 2Line Orbital Elements 262.AMSAT

  HR AMSAT ORBITAL ELEMENTS FOR AMATEUR SATELLITES IN NASA FORMAT
  FROM WA5QGD FORT WORTH,TX September 19, 1997
  SEND SUBSCRIBE/UNSUBSCRIBE TO listserv@amsat.org ONLY
  BID: ORBS-262.N
      
  DECODE 2-LINE ELSETS WITH THE FOLLOWING KEY:
  1 AAAAAU 00  0  0 BBBBB.BBBBBBBB  .CCCCCCCC  00000-0  00000-0 0  DDDZ
  2 AAAAA EEE.EEEE FFF.FFFF GGGGGGG HHH.HHHH III.IIII JJ.JJJJJJJJKKKKKZ
  KEY: A-CATALOGNUM B-EPOCHTIME C-DECAY D-ELSETNUM E-INCLINATION F-RAAN
  G-ECCENTRICITY H-ARGPERIGEE I-MNANOM J-MNMOTION K-ORBITNUM Z-CHECKSUM
  TO ALL RADIO AMATEURS BT
  
  FO-29
  1 24278U 96046B   97261.11952815 -.00000020  00000-0  18464-4 0 01177
  2 24278 098.5308 289.6292 0351628 305.5543 051.3282 13.52633214053689

  ■ 軌道要素2:「jamsatーkeps:619」より
                SB KEPS @ AMSAT  $ORBS-262.O
                Orbital Elements  262.OSCAR

  HR AMSAT ORBITAL ELEMENTS FOR OSCAR SATELLITES
  FROM WA5QGD FORT WORTH,TX September 19, 1997
  SEND SUBSCRIBE/UNSUBSCRIBE TO listserv@amsat.org ONLY
  BID: ORBS-262.O
  TO ALL RADIO AMATEURS BT

  Satellite: FO-29
  Catalog number: 24278
  Epoch time:      97261.11952815
  Element set:    0117
  Inclination:      098.5308 deg
  RA of node:       289.6292 deg
  Eccentricity:    0.0351628
  Arg of perigee:   305.5543 deg
  Mean anomaly:     051.3282 deg
  Mean motion:   13.52633214 rev/day
  Decay rate:       -2.0e-07 rev/day^2
  Epoch rev:           05368
  Checksum:              308
 -----------------------------------------------------------
  1 )FO−29(ふじ3号)の 9月22日(月)のJAアナログモード
   CWで運用中の1分毎の連続ビーコン波にのって送信されるテレメトリ
   の一部分です.
   AS5426C1   21SEP97
   JST 18:53 - 19:08
   Freq. 435.803 - 435.787MHz

HI HI AE C7 88 5D 9A 27 FF 0D 00 2C 74 55 5F 5F 92 90 B0 70 8A 87 89 89 83  
HI HI AE C7 88 5D 9F 27 FF 0D 00 2C 40 4E 60 60 92 90 B0 69 89 87 89 89 83 
HI HI AE C7 88 5D 85 27 FF 0D 00 2C 8D 47 60 60 93 90 B0  9 8A 87 88 89 83 
HI HI AE C7 88 5D          0D 00 2C 4B 42 5A 60 92 90 B0 65 
HI HI AE C7 88 59 90 28 FF 0D 00 2C 82 3B 5A 60 92 90 B0 82 8A 87 8B 59 83 
HI HI AE C7 88 59 95 29 FF       2C 50 35 5A 5F 92 90 B0 65 8A 86 89 89 83
HI HI AE C7 88 59 9B 2A FF 0D 00 2C 66 31 5A 60 92 90 AF 70 8A 87 89 89 83 
HI HI AE C7 88 5D 80 2A FF 0D 00 2C 78 2E 5D    93 90 B0 65 8A 87 88 89 83 
HI HI AE C7 88 5D 85 2B FF 0D 00 2C 5B 2B 60 5F 92 90 B0 7F 8A 86 88 89 83 
HI HI AE C7 88 5D 8B 2B 0A 0D 00 2C 6A 28 5A 60 92 90 B0 69 8A 87 89 89 82 
HI HI AE C7 88 5D 90 2B FF 0D 00 2C 67 26 5F 60 93 90 B0 71 8A 87 88 89 83 
HI HI AE C7 88 5D 96 2B FF 0D 00 2C 65 24 5E 60 92 90 B0 86 8A 87 89 89 83 
HI HI AE C7 88 5D 9B 2B FF 0D 00 2C 76 24 5B 60 93 90 B0 6B 8A 87 89 89 83 
HI HI AE C7 88 5D 80 2B FF 0D 00 2C 53 24 5B 5F 92 90 B0 5C 8A 87 89 89 83 
HI HI AE C7 88 5D 86 2B FF 0D 00 3C 6F 25 5B 60 95 90 B0 4E 8A 87 89 89 83 
   
  2)上記最終行のJAアナログCWテレメトリのアナログデータ換算値例 
       FO-29(ふじ3号)           '97/9/22  JST  18:52		

  CWアナログテレメトリ換算値例		
				
  テレメトリ	     内   容		換算値	単 位
  3C	磁気センサーZ軸=	54411.7	[ nT ]
  3D	磁気センサX軸	=	18137.2	[ nT ]
  4A	太陽電池発生電流=	  892.2	[ mA ]
  4B	B充放電電流	=	 -118.4	[ mA ]
  4C	B端子電圧	=	   16.0	[ V ]
  4D	B中間端子電圧	= 	    6.9	[ V ]
  5A	バス電圧	=	   17.3	[ V ]
  5B	JTA送信電力	=	  408.9	[ mW ]
  5C 	構体温度1	=    	   28.3	[ ℃ ]
  5D	構体温度2	=	   29.5	[ ℃ ]
  6A	構体温度3	=	   28.7	[ ℃ ]
  6B	構体温度4	=	   28.7	[ ℃ ] 
  6C	Bセル温度	= 	   31.0	[ ℃ ]
 =====================================================================
 3)FO−29(JAS−2)テレメトリの自動解読について「jamsat-bb:2922」に
     JE9PEL局脇田さんが投稿されていましたので転載させて頂きました.また
     jamsat-bb:2923」にはJJ1WTK局坂本さんのアドバイスがありましたがあま
     りにも長くなるので割愛させて頂きました.
  =======================================================================
  FO-29(JAS-2) パケットテレメトリの自動解読(例) (for Lotus1-2-3 R5J)
 =======================================================================
                          ( by JE9PEL/1  脇田)

  ● これは、表計算ソフト「Lotus 1-2-3」(バージョンR5J以上)を用いて、
    衛星FO-29(JAS-2)のパケットテレメトリを自動解読した出力例です。

  ● 衛星FO-29から受信したパケットテレメトリの16進数データを行ごとに
    2桁ずつ、このワークシートの第C列(16進数)に縦に手入力します。

  ● 入力した2桁の16進数の数値は、自動的に10進数と2進数に変換されて
    所定の換算式により解読された後、その結果が自動的に表示されます。

  ● この、FO-29のパケットテレメトリを自動解読し出力するための公開版
    のワークシートは、次のJAMSATサーバーに収録してあります。
    ファイル名は、tlmconv.wk4 を圧縮した tlmconv.lzh です。

      http://www.jamsat.or.jp/anonftp/software/win95/fo29/
      ftp://ftp.jamsat.or.jp/pub/software/win95/fo29/


     (例)  [1997年9月17日(水) 9:56JST受信]
       +---------------------------------------------+
          8J1JCS>BEACON [09/17/97  9:56:47] <UI C>:
          JAS-2    '97/09/17 00:47:31
          9C 03 63 08 00 24 00 00 00 00
          00 00 AA BF CD 67 60 92 90 B0
          AA 52 A8 01 DC 81 8A 89 86 88

          8J1JCS>BEACON [09/17/97  9:56:48] <UI C>:
          55 02 00 09 00 80 FB 40 00 00
          4A 53 39 52 5B 96 99 88 7C 82
          00 00 00 79 8B B3 F7 00 00 00
       +---------------------------------------------+


 [2進数変換結果]

      Fr. No. 16進数 10進数   2進数  bit7  b6  b5  b4  b3  b2  b1  b0
      0   00    9c     156  10011100    1   0   0   1   1   1   0   0
      0   01    03       3        11    0   0   0   0   0   0   1   1
      0   02    63      99   1100011    0   1   1   0   0   0   1   1
      0   03    08       8      1000    0   0   0   0   1   0   0   0
      0   04    00       0         0    0   0   0   0   0   0   0   0
      0   05    24      36    100100    0   0   1   0   0   1   0   0
      0   06    00       0         0    0   0   0   0   0   0   0   0
      0   07    00       0         0    0   0   0   0   0   0   0   0
      0   08    00       0         0    0   0   0   0   0   0   0   0
      0   09    00       0         0    0   0   0   0   0   0   0   0
      0   10    00       0         0    0   0   0   0   0   0   0   0
      0   11    00       0         0    0   0   0   0   0   0   0   0
      0   12    aa     170  10101010    1   0   1   0   1   0   1   0
      0   13    bf     191  10111111    1   0   1   1   1   1   1   1
      0   14    cd     205  11001101    1   1   0   0   1   1   0   1
      0   15    67     103   1100111    0   1   1   0   0   1   1   1
      0   16    60      96   1100000    0   1   1   0   0   0   0   0
      0   17    92     146  10010010    1   0   0   1   0   0   1   0
      0   18    90     144  10010000    1   0   0   1   0   0   0   0
      0   19    b0     176  10110000    1   0   1   1   0   0   0   0
      0   20    aa     170  10101010    1   0   1   0   1   0   1   0
      0   21    52      82   1010010    0   1   0   1   0   0   1   0
      0   22    a8     168  10101000    1   0   1   0   1   0   0   0
      0   23    01       1         1    0   0   0   0   0   0   0   1
      0   24    dc     220  11011100    1   1   0   1   1   1   0   0
      0   25    81     129  10000001    1   0   0   0   0   0   0   1
      0   26    8a     138  10001010    1   0   0   0   1   0   1   0
      0   27    89     137  10001001    1   0   0   0   1   0   0   1
      0   28    86     134  10000110    1   0   0   0   0   1   1   0
      0   29    88     136  10001000    1   0   0   0   1   0   0   0
      1   00    55      85   1010101    0   1   0   1   0   1   0   1
      1   01    02       2        10    0   0   0   0   0   0   1   0
      1   02    00       0         0    0   0   0   0   0   0   0   0
      1   03    09       9      1001    0   0   0   0   1   0   0   1
      1   04    00       0         0    0   0   0   0   0   0   0   0
      1   05    80     128  10000000    1   0   0   0   0   0   0   0
      1   06    fb     251  11111011    1   1   1   1   1   0   1   1
      1   07    40      64   1000000    0   1   0   0   0   0   0   0
      1   08    00       0         0    0   0   0   0   0   0   0   0
      1   09    00       0         0    0   0   0   0   0   0   0   0
      1   10    4a      74   1001010    0   1   0   0   1   0   1   0
      1   11    53      83   1010011    0   1   0   1   0   0   1   1
      1   12    39      57    111001    0   0   1   1   1   0   0   1
      1   13    52      82   1010010    0   1   0   1   0   0   1   0
      1   14    5b      91   1011011    0   1   0   1   1   0   1   1
      1   15    96     150  10010110    1   0   0   1   0   1   1   0
      1   16    99     153  10011001    1   0   0   1   1   0   0   1
      1   17    88     136  10001000    1   0   0   0   1   0   0   0
      1   18    7c     124   1111100    0   1   1   1   1   1   0   0
      1   19    82     130  10000010    1   0   0   0   0   0   1   0
      1   20    00       0         0    0   0   0   0   0   0   0   0
      1   21    00       0         0    0   0   0   0   0   0   0   0
      1   22    00       0         0    0   0   0   0   0   0   0   0
      1   23    79     121   1111001    0   1   1   1   1   0   0   1
      1   24    8b     139  10001011    1   0   0   0   1   0   1   1
      1   25    b3     179  10110011    1   0   1   1   0   0   1   1
      1   26    f7     247  11110111    1   1   1   1   0   1   1   1
      1   27    00       0         0    0   0   0   0   0   0   0   0
      1   28    00       0         0    0   0   0   0   0   0   0   0
      1   29    00       0         0    0   0   0   0   0   0   0   0


 [解読結果(一部抜粋)]

 《フレーム0》

